1508457600.16,63422,15.19,73912.5,1.57,-33.89,-35.77,0,*78
1508457601.39,63423,15.19,73914.5,1.57,-33.89,-35.77,0,*79
1508457602.62,63424,15.19,73918.3,1.57,-33.73,-35.59,0,*77
1508457603.82,63425,15.19,73918.5,1.57,-33.83,-35.71,0,*73
1508457605.06,63426,15.19,73910.3,1.59,-33.83,-35.77,0,*78
1508457606.26,63427,15.19,73916.3,1.57,-34.13,-36.07,0,*7D
1508457607.49,63428,15.19,73918.5,1.57,-34.13,-35.95,0,*7A
1508457608.73,63429,15.19,73914.5,1.57,-34.01,-35.89,0,*75
1508457609.97,63430,15.19,73912.8,1.53,-34.13,-35.95,0,*77
1508457611.18,63431,15.19,73912.0,1.53,-34.13,-36.01,0,*78
1508457612.4,63432,15.19,73912.5,1.53,-34.13,-36.01,0,*7B
1508457613.63,63433,15.19,73914.3,1.53,-34.19,-36.01,0,*70
1508457614.89,63434,15.19,73910.5,1.53,-34.19,-36.13,0,*74
1508457616.13,63435,15.19,73912.0,1.53,-34.13,-35.95,0,*72
1508457617.36,63436,15.19,73914.3,1.53,-33.77,-35.77,0,*78
1508457618.6,63437,15.19,73912.8,1.53,-34.07,-35.83,0,*72
1508457619.85,63438,15.19,73916.3,1.53,-33.77,-35.65,0,*75
1508457621.11,63439,15.19,73912.5,1.55,-33.73,-35.59,0,*79
1508457622.34,63440,15.19,73914.3,1.51,-33.83,-35.71,0,*76
1508457623.58,63441,15.19,73912.5,1.53,-33.89,-35.77,0,*79
1508457624.83,63442,15.19,73914.5,1.53,-33.77,-35.65,0,*78
1508457626.05,63443,15.19,73914.5,1.53,-33.61,-35.47,0,*7E
1508457627.31,63444,15.19,73916.5,1.51,-33.67,-35.53,0,*78
1508457628.57,63445,15.19,73916.3,1.51,-33.43,-35.29,0,*72
1508457629.79,63446,15.19,73912.5,1.51,-33.03,-34.89,0,*7E
1508457631.02,63447,15.19,73912.0,1.51,-33.03,-34.89,0,*7F
1508457632.24,63448,15.19,73912.5,1.53,-33.03,-34.83,0,*78
1508457633.44,63449,15.19,73912.5,1.53,-33.21,-35.17,0,*75
1508457634.71,63450,15.19,73908.5,1.55,-32.69,-34.65,0,*72
1508457635.96,63451,15.19,73908.5,1.53,-32.79,-34.53,0,*71
1508457637.19,63452,15.19,73910.5,1.55,-32.13,-33.95,0,*75
1508457638.47,63453,15.19,73908.5,1.55,-32.63,-34.53,0,*7E
1508457639.72,63454,15.19,73908.3,1.57,-32.79,-34.65,0,*75
1508457640.98,63455,15.19,73906.0,1.57,-32.75,-34.65,0,*78
1508457642.27,63456,15.19,73908.8,1.59,-32.79,-34.65,0,*79
1508457643.5,63457,15.19,73908.0,1.59,-33.15,-35.01,0,*70
1508457644.78,63458,15.19,73908.0,1.59,-33.49,-35.35,0,*71
1508457646.01,63459,15.19,73908.8,1.59,-33.37,-35.17,0,*79
1508457647.26,63460,15.19,73910.5,1.57,-33.49,-35.41,0,*77
1508457648.52,63461,15.19,73910.3,1.59,-33.67,-35.53,0,*77
1508457649.8,63462,15.19,73908.3,1.59,-33.49,-35.35,0,*78
1508457651.03,63463,15.19,73912.5,1.57,-33.37,-35.35,0,*7E
1508457652.28,63464,15.19,73912.5,1.59,-33.37,-35.23,0,*70
1508457653.48,63465,15.19,73910.8,1.57,-33.67,-35.59,0,*77
1508457654.73,63466,15.19,73910.3,1.57,-33.31,-35.23,0,*7A
1508457655.96,63467,15.19,73914.5,1.57,-33.37,-35.35,0,*7A
1508457657.19,63468,15.19,73910.5,1.59,-33.83,-35.71,0,*74
1508457658.4,63469,15.19,73912.5,1.57,-33.83,-35.77,0,*7D
1508457659.66,63470,15.19,73914.5,1.55,-33.95,-35.95,0,*7C
1508457660.94,63471,15.19,73914.3,1.55,-33.73,-35.65,0,*7A
1508457662.2,63472,15.19,73912.3,1.55,-33.43,-35.29,0,*72
1508457663.43,63473,15.19,73912.0,1.55,-33.55,-35.47,0,*7C
1508457664.69,63474,15.19,73912.8,1.55,-33.89,-35.77,0,*79
1508457665.97,63475,15.19,73910.3,1.55,-33.89,-35.83,0,*73
1508457667.21,63476,15.19,73910.3,1.55,-33.37,-35.29,0,*75
1508457668.46,63477,15.19,73906.5,1.55,-33.03,-34.83,0,*72
1508457669.72,63478,15.19,73908.8,1.55,-32.85,-34.71,0,*7F
1508457670.95,63479,15.19,73906.5,1.55,-33.03,-35.01,0,*77
1508457672.2,63480,15.19,73910.8,1.55,-33.21,-35.07,0,*77
1508457673.48,63481,15.19,73910.3,1.55,-33.43,-35.23,0,*74
1508457674.72,63482,15.19,73908.5,1.55,-33.37,-35.29,0,*7E
1508457675.97,63483,15.19,73910.3,1.57,-33.31,-35.35,0,*76
1508457677.21,63484,15.19,73914.0,1.57,-33.31,-35.23,0,*76
1508457678.44,63485,15.19,73908.0,1.57,-33.37,-35.35,0,*76
1508457679.64,63486,15.19,73910.0,1.57,-33.03,-35.01,0,*75
1508457680.87,63487,15.19,73914.0,1.57,-33.03,-34.95,0,*78
1508457682.09,63488,15.19,73912.0,1.57,-33.55,-35.35,0,*7F
1508457683.34,63489,15.19,73912.3,1.55,-33.55,-35.41,0,*7F
1508457684.63,63490,15.19,73914.0,1.55,-33.73,-35.65,0,*75
1508457685.89,63491,15.19,73912.3,1.55,-33.77,-35.47,0,*70
1508457687.17,63492,15.19,73912.0,1.55,-33.43,-35.41,0,*72
1508457688.37,63493,15.19,73912.0,1.53,-33.55,-35.29,0,*7C
1508457689.63,63494,15.19,73914.3,1.55,-33.55,-35.41,0,*73
1508457690.88,63495,15.19,73910.3,1.55,-33.61,-35.59,0,*7C
1508457692.13,63496,15.19,73912.0,1.55,-33.61,-35.47,0,*70
1508457693.36,63497,15.19,73912.0,1.53,-33.61,-35.47,0,*77
1508457694.61,63498,15.19,73914.0,1.55,-33.43,-35.47,0,*7E
1508457695.87,63499,15.19,73910.5,1.55,-33.77,-35.59,0,*77
1508457697.1,63500,15.19,73912.8,1.53,-33.43,-35.29,0,*70
1508457698.36,63501,15.19,73914.3,1.55,-33.43,-35.29,0,*77
1508457699.63,63502,15.19,73908.8,1.55,-33.43,-35.23,0,*7E
1508457700.89,63503,15.19,73914.3,1.55,-33.55,-35.41,0,*7C
1508457702.14,63504,15.19,73912.8,1.55,-33.61,-35.59,0,*75
1508457703.39,63505,15.19,73912.8,1.53,-33.77,-35.65,0,*7A
1508457704.62,63506,15.19,73910.5,1.53,-33.89,-35.77,0,*7B
1508457705.9,63507,15.19,73914.0,1.55,-33.77,-35.65,0,*7E
1508457707.15,63508,15.19,73908.5,1.53,-33.89,-35.83,0,*7E
1508457708.4,63509,15.19,73914.0,1.53,-33.77,-35.65,0,*76
1508457709.64,63510,15.19,73908.5,1.53,-33.73,-35.59,0,*75
1508457710.89,63511,15.19,73910.0,1.53,-33.89,-35.65,0,*7E
1508457712.14,63512,15.19,73914.0,1.53,-33.61,-35.41,0,*7D
1508457713.36,63513,15.19,73914.8,1.53,-33.61,-35.47,0,*7A
1508457714.62,63514,15.19,73914.0,1.53,-33.89,-35.83,0,*73
1508457715.89,63515,15.19,73914.0,1.51,-34.01,-35.89,0,*7D
1508457717.17,63516,15.19,73914.3,1.51,-33.77,-35.53,0,*7F
1508457718.39,63517,15.19,73916.3,1.49,-33.67,-35.65,0,*73
1508457719.68,63518,15.19,73914.8,1.51,-33.49,-35.53,0,*7C
1508457720.96,63519,15.19,73912.5,1.51,-33.49,-35.35,0,*7D
1508457722.23,63520,15.19,73914.8,1.51,-33.61,-35.35,0,*7D
1508457723.47,63521,15.19,73912.8,1.49,-33.73,-35.71,0,*76
1508457724.74,63522,15.19,73914.0,1.51,-33.77,-35.65,0,*7D
1508457725.98,63523,15.19,73914.5,1.49,-33.37,-35.35,0,*74
1508457727.23,63524,15.19,73912.8,1.51,-33.27,-35.17,0,*7B
1508457728.5,63525,15.19,73912.5,1.51,-33.31,-35.23,0,*7A
1508457729.76,63526,15.19,73912.5,1.51,-33.67,-35.65,0,*78
1508457730.96,63527,15.19,73912.5,1.49,-33.67,-35.59,0,*7F
1508457732.19,63528,15.19,73914.8,1.49,-33.89,-35.71,0,*7A
1508457733.4,63529,15.19,73914.3,1.49,-33.83,-35.89,0,*76
1508457734.66,63530,15.19,73912.5,1.49,-34.01,-35.95,0,*7E
1508457735.88,63531,15.19,73916.5,1.49,-33.83,-35.77,0,*7E
1508457737.11,63532,15.19,73914.0,1.49,-33.67,-35.41,0,*72
1508457738.37,63533,15.19,73918.0,1.49,-33.73,-35.53,0,*75
1508457739.61,63534,15.19,73914.3,1.49,-34.07,-35.95,0,*7C
1508457740.85,63535,15.19,73916.0,1.47,-34.07,-35.89,0,*7E
1508457742.12,63536,15.19,73912.3,1.47,-34.01,-35.89,0,*7B
1508457743.37,63537,15.19,73914.8,1.47,-34.07,-35.89,0,*7C
1508457744.6,63538,15.19,73914.3,1.47,-33.55,-35.47,0,*71
1508457745.84,63539,15.19,73914.3,1.47,-33.37,-35.29,0,*7C
1508457747.08,63540,15.19,73914.5,1.47,-33.37,-35.29,0,*72
1508457748.31,63541,15.19,73914.8,1.47,-33.37,-35.29,0,*73
1508457749.52,63542,15.19,73914.5,1.45,-33.55,-35.47,0,*7E
1508457750.76,63543,15.13,73910.3,1.47,-33.37,-35.29,0,*71
1508457752.01,63544,15.19,73912.0,1.45,-33.43,-35.35,0,*7A
1508457753.28,63545,15.19,73912.3,1.47,-33.73,-35.59,0,*70
1508457754.53,63546,15.19,73912.8,1.47,-33.67,-35.53,0,*7C
1508457755.79,63547,15.19,73910.5,1.47,-33.89,-35.77,0,*7B
1508457757.04,63548,15.19,73910.3,1.45,-33.89,-35.65,0,*75
1508457758.3,63549,15.19,73914.3,1.47,-33.89,-35.71,0,*73
1508457759.59,63550,15.19,73914.5,1.47,-34.01,-35.95,0,*76
1508457760.8,63551,15.19,73912.3,1.45,-33.95,-35.77,0,*73
1508457762.06,63552,15.19,73914.3,1.45,-33.77,-35.83,0,*77
1508457763.33,63553,15.19,73914.5,1.47,-34.01,-35.77,0,*79
1508457764.58,63554,15.19,73914.3,1.45,-33.77,-35.65,0,*79
1508457765.84,63555,15.19,73914.3,1.45,-33.89,-35.83,0,*71
1508457767.07,63556,15.19,73916.3,1.45,-33.95,-35.83,0,*7F
1508457768.29,63557,15.19,73914.8,1.45,-34.07,-36.01,0,*7B
1508457769.53,63558,15.19,73912.8,1.45,-33.89,-35.77,0,*77
1508457770.77,63559,15.19,73912.5,1.45,-34.07,-35.83,0,*7C
1508457772.01,63560,15.19,73914.5,1.45,-34.07,-35.95,0,*71
1508457773.28,63561,15.19,73918.0,1.43,-34.07,-35.95,0,*76
1508457774.54,63562,15.19,73914.8,1.43,-33.89,-35.77,0,*78
1508457775.78,63563,15.19,73914.8,1.39,-33.83,-35.83,0,*75
1508457777.02,63564,15.19,73914.8,1.43,-34.13,-36.01,0,*78
1508457778.28,63565,15.19,73916.0,1.43,-34.25,-35.95,0,*72
1508457779.52,63566,15.19,73918.5,1.39,-34.19,-36.01,0,*7D
1508457780.76,63567,15.19,73918.8,1.39,-34.01,-36.01,0,*75
1508457782.0,63568,15.19,73916.3,1.39,-34.19,-35.89,0,*70
1508457783.26,63569,15.19,73912.8,1.39,-33.77,-35.53,0,*79
1508457784.47,63570,15.19,73912.5,1.39,-33.67,-35.47,0,*75
1508457785.73,63571,15.19,73908.5,1.39,-33.49,-35.41,0,*7E
1508457786.98,63572,15.19,73914.0,1.43,-33.15,-35.07,0,*7B
1508457788.2,63573,15.19,73914.3,1.43,-33.15,-34.89,0,*7D
1508457789.43,63574,15.19,73912.3,1.39,-33.09,-34.89,0,*7A
1508457790.66,63575,15.19,73918.3,1.43,-33.03,-34.89,0,*7C
1508457791.93,63576,15.13,73910.8,1.43,-32.97,-34.83,0,*79
1508457793.18,63577,15.19,73912.5,1.43,-33.27,-35.17,0,*7E
1508457794.41,63578,15.19,73912.8,1.43,-33.21,-35.01,0,*70
1508457795.66,63579,15.19,73910.8,1.43,-32.97,-34.89,0,*7C
1508457796.91,63580,15.19,73912.3,1.45,-33.27,-35.23,0,*77
1508457798.14,63581,15.19,73916.3,1.45,-33.61,-35.47,0,*76
1508457799.4,63582,15.19,73916.0,1.43,-33.55,-35.41,0,*72
1508457800.67,63583,15.19,73918.0,1.43,-33.27,-35.23,0,*72
1508457801.92,63584,15.19,73918.5,1.43,-33.15,-35.07,0,*72
1508457803.18,63585,15.19,73912.8,1.43,-33.37,-35.23,0,*75
1508457804.45,63586,15.19,73916.0,1.43,-33.27,-35.07,0,*71
1508457805.7,63587,15.19,73916.0,1.43,-32.97,-34.89,0,*7D
1508457806.91,63588,15.19,73918.0,1.45,-33.21,-35.17,0,*7E
1508457808.16,63589,15.19,73916.5,1.45,-33.43,-35.35,0,*7B
1508457809.39,63590,15.19,73918.5,1.45,-33.37,-35.23,0,*77
1508457810.64,63591,15.19,73916.8,1.45,-33.89,-35.65,0,*71
1508457811.86,63592,15.19,73916.3,1.45,-33.95,-35.77,0,*7C
1508457813.11,63593,15.19,73914.0,1.45,-33.89,-35.65,0,*73
1508457814.37,63594,15.13,73912.8,1.43,-33.37,-35.41,0,*71
1508457815.57,63595,15.19,73918.5,1.45,-33.15,-34.89,0,*73
1508457816.84,63596,15.19,73912.5,1.43,-33.43,-35.35,0,*73
1508457818.1,63597,15.19,73912.8,1.43,-33.73,-35.59,0,*7B
1508457819.36,63598,15.19,73912.3,1.43,-33.73,-35.59,0,*74
1508457820.64,63599,15.19,73916.5,1.43,-33.61,-35.41,0,*7F
1508457821.9,63600,15.19,73918.3,1.43,-32.85,-34.71,0,*75
1508457823.09,63601,15.19,73916.0,1.39,-32.51,-34.41,0,*73
1508457824.37,63602,15.19,73916.0,1.43,-32.85,-34.83,0,*7A
1508457825.58,63603,15.19,73912.0,1.45,-33.37,-35.17,0,*79
1508457826.78,63604,15.19,73912.0,1.45,-33.55,-35.47,0,*7F
1508457828.04,63605,15.19,73912.5,1.45,-33.27,-35.23,0,*79
1508457829.27,63606,15.19,73914.5,1.45,-33.21,-35.07,0,*7A
1508457830.49,63607,15.19,73912.0,1.45,-32.85,-34.89,0,*73
1508457831.75,63608,15.19,73914.8,1.47,-32.97,-34.77,0,*7C
1508457833.01,63609,15.19,73914.5,1.45,-32.97,-34.65,0,*7C
1508457834.27,63610,15.19,73912.0,1.47,-32.69,-34.53,0,*72
1508457835.55,63611,15.19,73908.0,1.47,-32.75,-34.65,0,*7B
1508457836.84,63612,15.19,73908.8,1.47,-33.09,-34.95,0,*7D
1508457838.11,63613,15.13,73906.3,1.47,-32.97,-34.83,0,*7D
1508457839.36,63614,15.19,73908.8,1.47,-32.91,-34.83,0,*7C
1508457840.59,63615,15.19,73910.0,1.47,-33.21,-35.13,0,*7F
1508457841.82,63616,15.13,73908.5,1.47,-33.21,-35.13,0,*7C
1508457843.05,63617,15.19,73910.8,1.49,-33.31,-35.17,0,*76
1508457844.25,63618,15.19,73912.3,1.49,-33.15,-35.01,0,*78
1508457845.48,63619,15.19,73910.8,1.47,-32.91,-34.77,0,*7A
1508457846.72,63620,15.19,73912.5,1.49,-32.97,-34.83,0,*73
1508457847.96,63621,15.19,73912.5,1.49,-32.75,-34.47,0,*76
1508457849.2,63622,15.13,73908.5,1.51,-32.39,-34.19,0,*7F
1508457850.45,63623,15.19,73910.3,1.51,-32.51,-34.35,0,*7E
1508457851.68,63624,15.19,73908.3,1.49,-32.63,-34.47,0,*74
1508457852.93,63625,15.19,73912.3,1.51,-32.51,-34.35,0,*78
1508457854.18,63626,15.19,73908.5,1.51,-32.75,-34.71,0,*7D
1508457855.41,63627,15.19,73910.3,1.51,-32.91,-34.71,0,*76
1508457856.66,63628,15.13,73912.0,1.53,-32.63,-34.53,0,*76
1508457857.92,63629,15.19,73912.8,1.53,-32.85,-34.65,0,*7A
1508457859.17,63630,15.19,73918.0,1.53,-32.85,-34.83,0,*7A
1508457860.4,63631,15.19,73918.5,1.53,-32.97,-34.71,0,*75
1508457861.62,63632,15.19,73916.3,1.53,-32.85,-34.71,0,*75
1508457862.86,63633,15.19,73914.0,1.53,-32.69,-34.65,0,*73
1508457864.14,63634,15.19,73918.0,1.55,-32.63,-34.53,0,*7D
1508457865.43,63635,15.19,73918.0,1.55,-32.85,-34.65,0,*71
1508457866.65,63636,15.19,73916.8,1.55,-33.21,-35.17,0,*79
1508457867.88,63637,15.19,73912.8,1.55,-33.37,-35.17,0,*7F
1508457869.14,63638,15.19,73912.3,1.55,-33.55,-35.41,0,*77
1508457870.41,63639,15.19,73912.3,1.55,-33.27,-35.23,0,*77
1508457871.65,63640,15.19,73914.0,1.53,-33.09,-35.01,0,*73
1508457872.89,63641,15.19,73910.8,1.55,-33.37,-35.29,0,*73
1508457874.14,63642,15.19,73914.8,1.55,-33.55,-35.41,0,*7A
1508457875.37,63643,15.19,73914.3,1.53,-33.73,-35.59,0,*70
1508457876.6,63644,15.19,73912.5,1.53,-33.55,-35.41,0,*7A
1508457877.85,63645,15.19,73908.5,1.53,-33.77,-35.65,0,*7D
1508457879.08,63646,15.19,73912.5,1.53,-33.89,-35.77,0,*7C
1508457880.34,63647,15.13,73910.5,1.51,-33.83,-35.83,0,*7E
1508457881.58,63648,15.19,73914.0,1.51,-33.95,-35.89,0,*7C
1508457882.8,63649,15.19,73914.3,1.49,-34.13,-35.89,0,*7D
1508457884.07,63650,15.19,73914.3,1.51,-34.01,-35.89,0,*7F
1508457885.31,63651,15.19,73912.8,1.49,-34.07,-35.95,0,*7C
1508457886.55,63652,15.19,73916.8,1.49,-34.07,-35.95,0,*7F
1508457887.79,63653,15.19,73918.0,1.47,-34.07,-35.89,0,*7D
1508457889.06,63654,15.19,73916.8,1.47,-34.01,-35.89,0,*7C
1508457890.29,63655,15.13,73912.5,1.47,-33.83,-35.71,0,*77
1508457891.55,63656,15.19,73916.3,1.47,-33.67,-35.53,0,*7E
1508457892.78,63657,15.19,73918.3,1.49,-33.67,-35.41,0,*72
1508457894.01,63658,15.19,73918.0,1.47,-33.83,-35.59,0,*70
1508457895.27,63659,15.19,73918.8,1.47,-33.89,-35.77,0,*77
1508457896.49,63660,15.19,73918.0,1.45,-34.07,-36.01,0,*7C
1508457897.74,63661,15.19,73918.5,1.47,-33.89,-35.71,0,*7A
1508457898.97,63662,15.13,73914.5,1.45,-33.77,-35.59,0,*70
1508457900.26,63663,15.13,73914.0,1.47,-33.73,-35.53,0,*7D
1508457901.49,63664,15.19,73910.8,1.45,-33.37,-35.23,0,*7F
1508457902.75,63665,15.19,73910.3,1.47,-33.09,-35.01,0,*71
1508457903.98,63666,15.19,73910.3,1.45,-33.03,-34.83,0,*71
1508457905.21,63667,15.13,73910.3,1.47,-33.15,-35.01,0,*7E
1508457906.48,63668,15.19,73912.0,1.47,-32.97,-34.83,0,*71
1508457907.69,63669,15.19,73914.8,1.45,-33.03,-34.77,0,*75
1508457908.94,63670,15.13,73908.5,1.47,-32.63,-34.59,0,*74
1508457910.19,63671,15.19,73914.8,1.49,-32.97,-34.83,0,*77
1508457911.41,63672,15.19,73908.5,1.49,-33.31,-35.17,0,*75
1508457912.67,63673,15.19,73908.3,1.49,-33.49,-35.53,0,*7B
1508457913.95,63674,15.13,73904.0,1.51,-33.49,-35.35,0,*75
1508457915.18,63675,15.13,73906.5,1.49,-33.73,-35.71,0,*74
1508457916.39,63676,15.13,73904.8,1.49,-33.83,-35.71,0,*78
1508457917.65,63677,15.19,73910.8,1.47,-33.37,-35.35,0,*78
1508457918.85,63678,15.13,73908.3,1.49,-33.21,-35.13,0,*7A
1508457920.07,63679,15.19,73910.3,1.49,-33.15,-35.07,0,*79
1508457921.34,63680,15.19,73908.5,1.47,-33.49,-35.29,0,*74
1508457922.57,63681,15.19,73912.5,1.49,-33.31,-35.13,0,*7D
1508457923.82,63682,15.13,73908.5,1.49,-33.49,-35.35,0,*75
1508457925.08,63683,15.19,73912.8,1.47,-33.37,-35.35,0,*73
1508457926.33,63684,15.13,73912.0,1.47,-33.89,-35.71,0,*71
1508457927.6,63685,15.13,73912.8,1.47,-34.01,-35.77,0,*71
1508457928.87,63686,15.19,73910.8,1.47,-34.01,-35.89,0,*73
1508457930.1,63687,15.13,73910.0,1.45,-33.95,-35.83,0,*70
1508457931.36,63688,15.19,73916.0,1.47,-33.89,-35.77,0,*7B
1508457932.62,63689,15.13,73912.5,1.45,-33.61,-35.41,0,*7B
1508457933.82,63690,15.19,73916.5,1.45,-33.15,-35.01,0,*74
1508457935.11,63691,15.19,73914.3,1.47,-32.79,-34.65,0,*7F
1508457936.34,63692,15.13,73908.8,1.47,-32.91,-34.77,0,*79
1508457937.61,63693,15.13,73908.5,1.47,-32.97,-34.83,0,*75
1508457938.81,63694,15.13,73912.3,1.49,-33.15,-35.01,0,*7C
1508457940.09,63695,15.19,73914.5,1.47,-33.09,-34.95,0,*72
1508457941.38,63696,15.19,73916.3,1.47,-32.79,-34.65,0,*78
1508457942.61,63697,15.13,73910.5,1.49,-32.79,-34.77,0,*74
1508457943.84,63698,15.19,73914.0,1.49,-33.15,-34.95,0,*7C
1508457945.06,63699,15.19,73914.8,1.49,-33.15,-34.95,0,*7D
1508457946.3,63700,15.13,73914.5,1.49,-33.31,-35.29,0,*7C
1508457947.55,63701,15.13,73912.5,1.49,-33.49,-35.41,0,*7C
1508457948.81,63702,15.19,73916.8,1.49,-33.49,-35.41,0,*7F
1508457950.04,63703,15.19,73918.0,1.47,-33.37,-35.17,0,*7A
1508457951.27,63704,15.19,73916.3,1.49,-33.55,-35.53,0,*77
1508457952.5,63705,15.19,73914.0,1.49,-33.09,-35.01,0,*78
1508457953.73,63706,15.13,73910.8,1.49,-33.49,-35.17,0,*78
1508457954.99,63707,15.19,73912.8,1.49,-33.49,-35.41,0,*7A
1508457956.22,63708,15.13,73908.8,1.49,-33.37,-35.35,0,*7F
1508457957.45,63709,15.19,73914.5,1.49,-33.67,-35.53,0,*7B
1508457958.65,63710,15.19,73912.3,1.49,-33.83,-35.71,0,*79
1508457959.86,63711,15.19,73910.0,1.49,-33.37,-35.29,0,*7A
1508457961.15,63712,15.13,73908.8,1.47,-33.49,-35.41,0,*70
1508457962.41,63713,15.13,73906.3,1.47,-33.49,-35.29,0,*7F
1508457963.64,63714,15.19,73908.3,1.49,-33.15,-34.95,0,*79
1508457964.87,63715,15.13,73906.8,1.49,-33.67,-35.41,0,*75
1508457966.12,63716,15.13,73908.0,1.47,-33.55,-35.35,0,*7A
1508457967.36,63717,15.13,73910.5,1.45,-33.73,-35.47,0,*78
1508457968.62,63718,15.13,73912.0,1.47,-33.73,-35.59,0,*7A
1508457969.88,63719,15.13,73908.8,1.47,-33.83,-35.53,0,*7E
1508457971.16,63720,15.13,73910.3,1.47,-33.73,-35.53,0,*7B
1508457972.4,63721,15.19,73914.5,1.45,-33.77,-35.59,0,*76
1508457973.62,63722,15.13,73910.3,1.47,-33.55,-35.59,0,*77
1508457974.88,63723,15.13,73910.0,1.47,-33.73,-35.71,0,*78
1508457976.14,63724,15.13,73904.8,1.45,-33.89,-35.83,0,*75
1508457977.38,63725,15.13,73910.0,1.45,-33.89,-35.77,0,*7F
1508457978.61,63726,15.13,73912.8,1.47,-33.37,-35.17,0,*7D
1508457979.87,63727,15.13,73914.8,1.47,-33.31,-35.13,0,*7E
1508457981.1,63728,15.13,73908.8,1.45,-33.37,-35.23,0,*76
1508457982.35,63729,15.13,73912.5,1.47,-33.55,-35.35,0,*76
1508457983.58,63730,15.13,73908.5,1.45,-33.61,-35.59,0,*71
1508457984.78,63731,15.19,73910.8,1.45,-33.55,-35.47,0,*78
1508457986.01,63732,15.19,73912.3,1.45,-33.61,-35.59,0,*73
1508457987.22,63733,15.19,73914.3,1.45,-33.55,-35.47,0,*7A
1508457988.47,63734,15.13,73912.5,1.45,-33.27,-35.23,0,*7A
1508457989.67,63735,15.19,73914.5,1.45,-33.55,-35.47,0,*7C
1508457990.91,63736,15.13,73912.0,1.45,-33.73,-35.59,0,*74
1508457992.15,63737,15.19,73916.0,1.45,-33.73,-35.59,0,*75
1508457993.36,63738,15.13,73914.0,1.45,-33.95,-35.77,0,*7E
1508457994.59,63739,15.13,73916.3,1.47,-33.37,-35.17,0,*73
1508457995.82,63740,15.13,73916.3,1.45,-33.37,-35.23,0,*78
1508457997.03,63741,15.13,73914.8,1.45,-33.21,-35.17,0,*79
1508457998.28,63742,15.13,73912.8,1.45,-33.27,-35.23,0,*7B
1508457999.51,63743,15.13,73916.5,1.45,-33.37,-35.23,0,*7B
1508458000.74,63744,15.19,73914.3,1.45,-33.55,-35.41,0,*7C
1508458001.99,63745,15.13,73912.8,1.45,-33.27,-35.07,0,*7A
1508458003.25,63746,15.13,73912.5,1.45,-33.27,-35.35,0,*78
1508458004.48,63747,15.13,73912.3,1.45,-33.37,-35.23,0,*7F
1508458005.73,63748,15.19,73918.3,1.45,-33.61,-35.65,0,*71
1508458006.94,63749,15.19,73918.0,1.45,-33.15,-35.01,0,*71
1508458008.14,63750,15.13,73914.8,1.45,-33.03,-35.01,0,*7E
1508458009.4,63751,15.19,73914.5,1.47,-32.91,-34.95,0,*7B
1508458010.66,63752,15.13,73910.8,1.47,-33.31,-35.29,0,*75
1508458011.94,63753,15.19,73912.3,1.47,-33.49,-35.35,0,*76
1508458013.17,63754,15.13,73910.3,1.45,-33.15,-35.07,0,*7B
1508458014.38,63755,15.13,73908.8,1.45,-33.21,-35.01,0,*7B
1508458015.61,63756,15.13,73906.8,1.45,-33.55,-35.35,0,*7C
1508458016.86,63757,15.13,73908.0,1.45,-33.43,-35.35,0,*7A
1508458018.12,63758,15.13,73908.3,1.45,-33.43,-35.35,0,*75
1508458019.37,63759,15.13,73912.3,1.47,-33.55,-35.41,0,*72
1508458020.63,63760,15.13,73914.5,1.47,-33.67,-35.53,0,*7A
1508458021.89,63761,15.13,73908.8,1.45,-33.73,-35.65,0,*79
1508458023.12,63762,15.13,73910.3,1.47,-33.55,-35.59,0,*73
1508458024.35,63763,15.19,73914.0,1.45,-33.89,-35.77,0,*7D
1508458025.57,63764,15.13,73914.8,1.45,-34.13,-36.01,0,*7C
1508458026.81,63765,15.19,73912.0,1.45,-34.13,-35.95,0,*73
1508458028.03,63766,15.13,73914.5,1.45,-34.07,-36.01,0,*7B
1508458029.27,63767,15.13,73912.3,1.43,-34.13,-36.01,0,*79
1508458030.51,63768,15.13,73912.0,1.43,-34.13,-36.01,0,*76
1508458031.75,63769,15.13,73914.0,1.39,-34.19,-36.01,0,*70
1508458032.98,63770,15.13,73914.5,1.39,-34.19,-36.07,0,*7E
1508458034.22,63771,15.19,73912.0,1.43,-34.13,-36.01,0,*7E
1508458035.45,63772,15.13,73914.0,1.39,-34.19,-36.07,0,*7C
1508458036.69,63773,15.19,73914.5,1.39,-34.19,-36.01,0,*7B
1508458037.93,63774,15.13,73912.3,1.39,-34.01,-36.01,0,*75
1508458039.18,63775,15.19,73912.0,1.37,-33.77,-35.71,0,*78
1508458040.43,63776,15.13,73908.8,1.37,-33.67,-35.65,0,*7F
1508458041.69,63777,15.19,73914.0,1.39,-33.77,-35.65,0,*71
1508458042.91,63778,15.13,73908.8,1.37,-33.83,-35.71,0,*7E
1508458044.15,63779,15.19,73912.8,1.39,-33.95,-35.83,0,*7B
1508458045.39,63780,15.13,73910.8,1.35,-34.07,-35.95,0,*7A
1508458046.63,63781,15.13,73912.0,1.37,-34.13,-35.89,0,*71
1508458047.86,63782,15.19,73912.8,1.37,-34.13,-35.89,0,*72
1508458049.09,63783,15.13,73908.8,1.35,-34.25,-36.13,0,*74
1508458050.35,63784,15.13,73908.8,1.37,-34.19,-36.01,0,*7D
1508458051.55,63785,15.13,73908.0,1.35,-34.07,-36.07,0,*77
1508458052.78,63786,15.13,73910.3,1.35,-34.19,-36.07,0,*7B
1508458053.98,63787,15.19,73912.3,1.35,-34.07,-36.07,0,*75
1508458055.23,63788,15.13,73910.0,1.35,-34.19,-36.13,0,*70
1508458056.48,63789,15.19,73914.3,1.35,-34.35,-36.13,0,*7F
1508458057.71,63790,15.13,73914.0,1.31,-34.31,-36.19,0,*7D
1508458058.93,63791,15.13,73910.0,1.33,-34.41,-36.19,0,*79
1508458060.2,63792,15.13,73914.8,1.33,-34.07,-35.95,0,*7F
1508458061.45,63793,15.13,73914.3,1.33,-33.95,-35.83,0,*75
1508458062.67,63794,15.13,73910.5,1.31,-34.07,-36.01,0,*75
1508458063.9,63795,15.13,73912.5,1.31,-34.25,-36.13,0,*77
1508458065.13,63796,15.13,73912.3,1.31,-34.13,-35.95,0,*7C
1508458066.36,63797,15.13,73912.8,1.31,-34.31,-36.19,0,*7A
1508458067.62,63798,15.13,73910.3,1.31,-34.31,-36.13,0,*7F
1508458068.82,63799,15.13,73912.5,1.31,-34.41,-36.19,0,*73
1508458070.07,63800,15.13,73910.8,1.29,-34.31,-36.07,0,*7D
1508458071.35,63801,15.13,73910.0,1.29,-34.35,-36.25,0,*78
1508458072.61,63802,15.13,73908.8,1.29,-34.35,-36.19,0,*74
1508458073.87,63803,15.13,73910.8,1.27,-34.35,-36.25,0,*74
1508458075.12,63804,15.13,73910.0,1.29,-34.19,-36.07,0,*73
1508458076.34,63805,15.13,73908.8,1.27,-34.31,-36.07,0,*76
1508458077.6,63806,15.13,73908.8,1.29,-34.35,-36.19,0,*70
1508458078.81,63807,15.13,73906.8,1.27,-34.13,-36.01,0,*72
1508458080.06,63808,15.13,73906.3,1.27,-33.77,-35.65,0,*79
1508458081.29,63809,15.13,73904.5,1.29,-33.83,-35.71,0,*78
1508458082.52,63810,15.13,73906.8,1.27,-33.83,-35.83,0,*73
1508458083.73,63811,15.13,73906.8,1.27,-33.83,-35.71,0,*7F
1508458084.96,63812,15.13,73910.5,1.27,-33.95,-35.83,0,*76
1508458086.19,63813,15.13,73906.8,1.27,-33.83,-35.65,0,*78
1508458087.44,63814,15.13,73908.0,1.25,-33.89,-35.71,0,*72
1508458088.69,63815,15.13,73910.5,1.25,-33.83,-35.65,0,*7C
1508458089.94,63816,15.13,73912.0,1.25,-33.89,-35.77,0,*76
1508458091.23,63817,15.13,73912.5,1.25,-33.73,-35.53,0,*74
1508458092.5,63818,15.13,73912.3,1.25,-33.49,-35.35,0,*72
1508458093.75,63819,15.13,73910.3,1.27,-33.27,-35.23,0,*7E
1508458094.98,63820,15.13,73912.5,1.27,-33.21,-35.07,0,*74
1508458096.21,63821,15.19,73912.5,1.27,-33.37,-35.23,0,*74
1508458097.41,63822,15.13,73904.3,1.27,-32.91,-34.77,0,*7A
1508458098.65,63823,15.13,73906.5,1.29,-32.39,-34.19,0,*7F
1508458099.88,63824,15.13,73912.0,1.29,-32.69,-34.59,0,*79
1508458101.13,63825,15.13,73908.8,1.29,-32.51,-34.31,0,*7D
1508458102.36,63826,15.13,73908.8,1.29,-32.57,-34.47,0,*79
1508458103.59,63827,15.13,73908.5,1.31,-32.97,-35.01,0,*7E
1508458104.81,63828,15.13,73910.5,1.33,-33.21,-35.17,0,*78